This demonstration page uses our WeatherBlox Daily Observations layout. Learn more.

Left ArrowRight Arrow

39.29038, -76.61219

Hourly Observations for August 21, 2022

Temp ( °F °C ) Dew Point ( °F °C ) Humidity (%) Winds ( mph kmh ) Pressure ( in mb ) Visibility ( mi km ) Precip ( " mm )
12:54 am 00:54 undefined 78 25.6 69 20.6 74 74 undefined N/A 30.11 1020 N/A 0.00 0.00
1:54 am 01:54 undefined 77 25 70 21.1 79 79 undefined N/A 30.11 1020 N/A 0.00 0.00
2:54 am 02:54 undefined 76 24.4 70 21.1 82 82 undefined N/A 30.11 1020 N/A 0.00 0.00
3:54 am 03:54 undefined 76 24.4 70 21.1 82 82 undefined N/A 30.11 1020 N/A 0.00 0.00
4:54 am 04:54 undefined 74 23.3 70 21.1 87 87 undefined N/A 30.11 1020 N/A 0.00 0.00
5:54 am 05:54 undefined 74 23.3 70 21.1 87 87 undefined N/A 30.11 1020 N/A 0.00 0.00
6:54 am 06:54 undefined 75 23.9 70 21.1 84 84 undefined N/A 30.12 1020 N/A 0.00 0.00
7:54 am 07:54 undefined 75 23.9 70 21.1 84 84 undefined N/A 30.12 1020 N/A 0.00 0.00
8:54 am 08:54 undefined 77 25 70 21.1 79 79 undefined N/A 30.12 1020 N/A 0.00 0.00
9:54 am 09:54 undefined 78 25.6 71 21.7 79 79 undefined N/A 30.12 1020 N/A 0.00 0.00
10:54 am 10:54 undefined 82 27.8 70 21.1 67 67 undefined N/A 30.11 1020 N/A 0.00 0.00
11:54 am 11:54 undefined 83 28.3 71 21.7 67 67 undefined N/A 30.09 1019 N/A 0.00 0.00
12:54 pm 12:54 undefined 82 27.8 72 22.2 72 72 undefined N/A 30.10 1019 N/A 0.00 0.00
1:54 pm 13:54 undefined 83 28.3 67 19.4 59 59 undefined N/A 30.08 1019 N/A 0.00 0.00
2:54 pm 14:54 undefined 82 27.8 68 20 63 63 undefined N/A 30.06 1018 N/A 0.00 0.00
3:54 pm 15:54 undefined 82 27.8 70 21.1 67 67 undefined N/A 30.02 1017 N/A 0.00 0.00
4:54 pm 16:54 undefined 82 27.8 69 20.6 65 65 undefined N/A 30.00 1016 N/A 0.00 0.00
6:54 pm 18:54 undefined 81 27.2 68 20 65 65 undefined N/A 30.01 1016 N/A 0.00 0.00
7:54 pm 19:54 undefined 81 27.2 68 20 65 65 undefined N/A 30.00 1016 N/A 0.00 0.00
8:54 pm 20:54 undefined 80 26.7 69 20.6 69 69 undefined N/A 30.00 1016 N/A 0.00 0.00
10:54 pm 22:54 undefined 75 23.9 72 22.2 90 90 undefined N/A 29.99 1016 N/A 0.05 1.27
11:54 pm 23:54 undefined 75 23.9 71 21.7 88 88 undefined N/A 29.99 1016 N/A 0.00 0.00

Powered by AerisWeather